User: anonymous   Login
Location: Gerlach
(40.6516°N, 119.3568°W)
Time: 20:39:41
(UTC-08:00)
Language:

CUBESAT XI-V - Orbit

View from above orbital plane
View from above orbital plane
View from above satellite
View from above satellite

Ground track
Ground track

The orbit data is extracted from the following two-line orbital elements,

1 28895U 05043F   24057.61166416  .00002820  00000-0  51149-3 0  9998
2 28895  98.1820 193.4628 0015744 353.5577   6.5422 14.66965109978090
Epoch (UTC): 26 February 2024 14:40:47
Eccentricity: 0.0015744
inclination: 98.1820°
perigee height: 659 km
apogee height: 682 km
right ascension of ascending node: 193.4628°
argument of perigee: 353.5577°
revolutions per day: 14.66965109
mean anomaly at epoch: 6.5422°
orbit number at epoch: 97809

The dashed part of the orbit path shows where the satellite is in the earth's shadow,  

DLR